Port Hope, MI

5:26 AM EDT on September 27, 2016 (GMT -0400)
Port Hope

Weather History for KP58 - October, 2012

Change the Weather History Date:

Saturday, October 20, 2012

  Actual Average Record
Temperature  
Mean Temperature 48 °F -  
Max Temperature 53 °F 56 °F 91 °F (2000)
Min Temperature 45 °F 42 °F 34 °F (2002)
Degree Days  
Heating Degree Days 16    
Moisture  
Dew Point 44 °F    
Average Humidity 87    
Maximum Humidity 93    
Minimum Humidity 77    
Precipitation  
Precipitation 0.12 in - - ()
Sea Level Pressure  
Sea Level Pressure 29.66 in    
Wind  
Wind Speed 2 mph (West)    
Max Wind Speed 7 mph    
Max Gust Speed -    
Averages and records for this station are not official NWS values.
T = Trace of Precipitation, MM = Missing Value Source: NWS Daily Summary

Daily Weather History Graph

Daily Weather History Graph

Search for Another Location

Airport or City:

Trip Planner

Search our weather history database for the weather conditions in past years. The results will help you decide how hot, cold, wet, or windy it might be!

Date:

Astronomy

Oct. 20, 2012 Rise Set
Actual Time 7:52 AM EDT 6:38 PM EDT
Civil Twilight 7:23 AM EDT 7:07 PM EDT
Nautical Twilight 6:49 AM EDT 7:41 PM EDT
Astronomical Twilight 6:16 AM EDT 8:14 PM EDT
Moon 1:33 PM EDT (10/20) 11:17 PM EDT (10/20)
Length of Visible Light 11h 44m
Length of Day
10h 45m
Waxing Crescent, 34% of the Moon is Illuminated
Oct 20
Waxing Crescent
Oct 21
First Quarter
Oct 29
Full
Nov 6
Last Quarter
Nov 13
New

Hourly Weather History & Observations

Time (EDT) Temp. Windchill Dew Point Humidity Pressure Visibility Wind Dir Wind Speed Gust Speed Precip Events Conditions
12:51 AM 46.9 °F - 44.1 °F 90% 29.58 in - Calm Calm - 0.01 in   Unknown
1:51 AM 46.0 °F - 44.1 °F 93% 29.58 in - Calm Calm - 0.01 in   Unknown
2:51 AM 46.0 °F - 44.1 °F 93% 29.57 in - Calm Calm - 0.02 in   Unknown
3:51 AM 46.0 °F - 44.1 °F 93% 29.57 in - Calm Calm - 0.01 in   Unknown
4:51 AM 45.0 °F - 43.0 °F 93% 29.57 in - Calm Calm - N/A   Unknown
5:51 AM 45.0 °F - 43.0 °F 93% 29.58 in - Calm Calm - N/A   Unknown
6:51 AM 45.0 °F - 43.0 °F 93% 29.58 in - Calm Calm - N/A   Unknown
7:51 AM 46.0 °F 44.8 °F 44.1 °F 93% 29.59 in - SW 3.5 mph - N/A   Unknown
8:51 AM 46.0 °F 43.9 °F 44.1 °F 93% 29.60 in - Variable 4.6 mph - 0.01 in   Unknown
9:51 AM 46.9 °F - 44.1 °F 90% 29.60 in - WSW 4.6 mph - N/A   Unknown
10:51 AM 48.0 °F - 45.0 °F 89% 29.61 in - WSW 3.5 mph - 0.02 in   Unknown
11:51 AM 48.9 °F - 45.0 °F 86% 29.63 in - WNW 4.6 mph - 0.02 in   Unknown
12:51 PM 50.0 °F - 45.0 °F 83% 29.63 in - WNW 5.8 mph - N/A   Unknown
1:51 PM 51.1 °F - 45.0 °F 80% 29.64 in - WNW 6.9 mph - N/A   Unknown
2:51 PM 51.1 °F - 46.0 °F 83% 29.65 in - Variable 3.5 mph - 0.01 in   Unknown
3:51 PM 51.1 °F - 46.0 °F 83% 29.68 in - NW 5.8 mph - 0.01 in   Unknown
4:51 PM 52.0 °F - 45.0 °F 77% 29.70 in - WNW 4.6 mph - N/A   Unknown
5:51 PM 52.0 °F - 45.0 °F 77% 29.73 in - West 4.6 mph - N/A   Unknown
6:51 PM 50.0 °F - 45.0 °F 83% 29.75 in - Variable 3.5 mph - N/A   Unknown
7:51 PM 48.0 °F - 44.1 °F 86% 29.75 in - WSW 3.5 mph - N/A   Unknown
8:51 PM 46.9 °F - 43.0 °F 86% 29.77 in - West 4.6 mph - N/A   Unknown
9:51 PM 45.0 °F 41.8 °F 42.1 °F 90% 29.81 in - WSW 5.8 mph - N/A   Unknown
10:51 PM 46.9 °F - 43.0 °F 86% 29.82 in - WSW 5.8 mph - N/A   Unknown
11:51 PM 46.9 °F - 43.0 °F 86% 29.83 in - WSW 5.8 mph - N/A   Unknown